Location: Krakow
(50.0830°N, 19.9170°E)
Time: 19:45:58
(UTC+01:00)

Vanguard 1 Rocket - Pass Details

Date: 18 December 2023
Orbit: 653 x 4219 km, 34.3° (Epoch: 29 February)

Event Time Altitude Azimuth Distance (km) Brightness Sun altitude
Rises 23:43:56 0° 207° (SSW) 7,572 - -63.2°
Reaches altitude 10° 23:49:37 10° 198° (SSW) 6,914 - -63.2°
Maximum altitude 00:09:42 33° 145° (SE) 5,653 - -62.5°
Exits shadow 00:18:09 28° 117° (ESE) 5,829 11.2 -62.1°
Drops below altitude 10° 00:28:52 10° 92° (E) 6,687 11.9 -61.4°
Sets 00:34:07 0° 84° (E) 7,317 12.2 -61.0°
